Calgary / Springba, Alberta

1:51 PM MST on February 27, 2017 (GMT -0700)
Springbank

Weather History for CYBW - October, 2011

Change the Weather History Date:

Wednesday, October 19, 2011

  Actual Average Record
Temperature  
Mean Temperature 46 °F -  
Max Temperature 60 °F 39 °F 68 °F (2003)
Min Temperature 33 °F 18 °F 15 °F (2004)
Degree Days  
Heating Degree Days 18    
Moisture  
Dew Point 27 °F    
Average Humidity 44    
Maximum Humidity 65    
Minimum Humidity 19    
Precipitation  
Precipitation 0.00 in - - ()
Sea Level Pressure  
Sea Level Pressure 29.85 in    
Wind  
Wind Speed 5 mph ()    
Max Wind Speed 15 mph    
Max Gust Speed 21 mph    
Visibility 15.6 miles    
Events      
Averages and records for this station are not official NWS values.
T = Trace of Precipitation, MM = Missing Value Source: Averaged Metar Reports

Daily Weather History Graph

Daily Weather History Graph

Search for Another Location

Airport or City:

Trip Planner

Search our weather history database for the weather conditions in past years. The results will help you decide how hot, cold, wet, or windy it might be!

Date:

Astronomy

Oct. 19, 2011 Rise Set
Actual Time 8:07 AM MDT 6:36 PM MDT
Civil Twilight 7:33 AM MDT 7:10 PM MDT
Nautical Twilight 6:55 AM MDT 7:48 PM MDT
Astronomical Twilight 6:16 AM MDT 8:26 PM MDT
Moon No Moon Rise 2:58 PM MDT (10/19)
Length of Visible Light 11h 36m
Length of Day
10h 29m
Waning Gibbous, 54% of the Moon is Illuminated
Oct 19
Waning Gibbous
Oct 19
Last Quarter
Oct 26
New
Nov 2
First Quarter
Nov 10
Full

Hourly Weather History & Observations

Time (MDT) Temp. Windchill Dew Point Humidity Pressure Visibility Wind Dir Wind Speed Gust Speed Precip Events Conditions
5:00 AM 37.4 °F 34.9 °F 24.8 °F 60% 29.92 in 15.0 mi West 3.5 mph - N/A   Mostly Cloudy
6:00 AM 38 °F - 25 °F 48% 29.91 in 15 mi WSW 3.5 mph - -   Overcast
6:00 AM 39.2 °F - 24.8 °F 56% 29.91 in 15.0 mi West 2.3 mph - N/A   Overcast
7:00 AM 41.0 °F 37.1 °F 24.8 °F 53% 29.89 in 15.0 mi North 5.8 mph - N/A   Overcast
8:00 AM 35.6 °F 30.7 °F 24.8 °F 65% 29.87 in 30.0 mi NW 5.8 mph - N/A   Mostly Cloudy
9:00 AM 37.4 °F 29.8 °F 26.6 °F 65% 29.88 in 30.0 mi NW 11.5 mph - N/A   Overcast
10:00 AM 48.2 °F - 30.2 °F 50% 29.88 in 30.0 mi NNW 8.1 mph - N/A   Overcast
11:00 AM 55.4 °F - 28.4 °F 36% 29.87 in 30.0 mi NNW 15.0 mph - N/A   Overcast
12:00 PM 58 °F - 27 °F 19% 29.84 in 28 mi NW 11.5 mph - -   Overcast
12:00 PM 59.0 °F - 26.6 °F 29% 29.84 in 30.0 mi NW 11.5 mph - N/A   Overcast
1:00 PM 59.0 °F - 23.0 °F 25% 29.83 in 30.0 mi NNW 12.7 mph 20.7 mph N/A   Overcast
3:00 PM 55.4 °F - 28.4 °F 36% 29.82 in 30.0 mi NNW 10.4 mph - N/A   Overcast
4:00 PM 53.6 °F - 28.4 °F 38% 29.82 in 30.0 mi NNW 5.8 mph - N/A   Mostly Cloudy
5:00 PM 53.6 °F - 28.4 °F 38% 29.81 in 30.0 mi NE 4.6 mph - N/A   Mostly Cloudy
6:00 PM 53 °F - 29 °F 27% 29.81 in 28 mi Calm Calm - -   Mostly Cloudy
6:00 PM 53.6 °F - 28.4 °F 38% 29.81 in 30.0 mi Calm Calm - N/A   Mostly Cloudy
7:00 PM 48.2 °F - 28.4 °F 46% 29.81 in 20.0 mi Calm Calm - N/A   Mostly Cloudy
8:00 PM 44.6 °F 40.7 °F 28.4 °F 53% 29.82 in 15.0 mi NW 6.9 mph - N/A   Mostly Cloudy
9:00 PM 42.8 °F 39.3 °F 28.4 °F 57% 29.84 in 15.0 mi West 5.8 mph - N/A   Partly Cloudy
10:00 PM 50.0 °F - 30.2 °F 47% 29.84 in 15.0 mi WNW 9.2 mph - N/A   Clear